Location: Alafon
(8.4500°N, 4.2333°E)
Time: 01:55:19
(UTC+00:00)

USA 186 - Pass Details

Date: 05 July 2020
Orbit: 262 x 437 km, 96.9° (Epoch: 06 August)

Event Time Altitude Azimuth Distance (km) Brightness Sun altitude
Exits shadow 19:14:48 26° 68° (ENE) 909 3.1 -16.3°
Drops below altitude 10° 19:17:19 10° 20° (NNE) 1,554 4.7 -16.9°
Sets 19:19:32 0° 7° (N) 2,417 5.9 -17.4°
